Location: *
(42.0175°N, 9.4056°E)
Time: 09:56:31
(UTC+00:00)

Cosmos 1386 Rocket - Pass Details

Date: 25 August 2019
Orbit: 930 x 1006 km, 83.0° (Epoch: 14 September)

Event Time Altitude Azimuth Distance (km) Brightness Sun altitude
Rises 19:28:37 0° 353° (N) 3,631 8.0 -14.6°
Reaches altitude 10° 19:31:07 10° 355° (N) 2,692 7.3 -15.0°
Maximum altitude 19:37:17 76° 82° (E) 999 4.4 -16.0°
Enters shadow 19:42:55 13° 168° (SSE) 2,499 6.2 -16.9°
